| time (UTC) | temp F | wind direction | speed MPH | gust MPH | rain 1hr in | rain 24hr in | rain mn in | humidity % | barometer mb |
| 20260906074509 | 64 | 96 | 11.0 | 15.0 | 0.00 | 0.17 | 0.17 | 98 | 1011.8 |
| 20260906073007 | 64 | 57 | 10.0 | 15.0 | 0.01 | 0.17 | 0.17 | 99 | 1011.8 |
| 20260906071507 | 64 | 72 | 12.0 | 17.0 | 0.13 | 0.17 | 0.17 | 99 | 1011.6 |
| 20260906070006 | 64 | 42 | 9.0 | 16.0 | 0.17 | 0.17 | 0.17 | 99 | 1011.8 |
| 20260906064504 | 64 | 316 | 12.0 | 19.0 | 0.17 | 0.17 | 0.17 | 99 | 1011.5 |
| 20260906063001 | 64 | 115 | 13.0 | 23.0 | 0.16 | 0.16 | 0.16 | 98 | 1011.8 |
| 20260906061557 | 67 | 46 | 16.0 | 22.0 | 0.03 | 0.03 | 0.03 | 93 | 1011.9 |
| 20260906060055 | 68 | 107 | 7.0 | 12.0 | 0.00 | 0.00 | 0.00 | 89 | 1011.8 |
| 20260906054554 | 68 | 106 | 9.0 | 13.0 | 0.00 | 0.00 | 0.00 | 87 | 1011.8 |
| 20260906053053 | 68 | 84 | 10.0 | 14.0 | 0.00 | 0.00 | 0.00 | 90 | 1011.8 |
| 20260906051601 | 68 | 102 | 13.0 | 15.0 | 0.00 | 0.00 | 0.00 | 88 | 1011.8 |
| 20260906044553 | 68 | 74 | 8.0 | 14.0 | 0.00 | 0.00 | 0.00 | 91 | 1011.9 |
| 20260906043057 | 67 | 93 | 14.0 | 17.0 | 0.00 | 0.00 | 0.00 | 94 | 1011.8 |
| 20260906041547 | 68 | 93 | 17.0 | 22.0 | 0.00 | 0.00 | 0.00 | 92 | 1011.8 |
| 20260906040043 | 69 | 58 | 12.0 | 18.0 | 0.00 | 0.00 | 0.00 | 90 | 1011.8 |
| 20260906034604 | 69 | 102 | 5.0 | 9.0 | 0.00 | 0.00 | 0.00 | 91 | 1011.6 |
| 20260906033039 | 68 | 353 | 5.0 | 8.0 | 0.00 | 0.00 | 0.00 | 88 | 1011.5 |
| 20260906031545 | 69 | 23 | 4.0 | 9.0 | 0.00 | 0.00 | 0.00 | 88 | 1011.3 |
| 20260906030038 | 69 | 323 | 4.0 | 7.0 | 0.00 | 0.00 | 0.00 | 86 | 1011.2 |
| 20260906024536 | 70 | 347 | 4.0 | 7.0 | 0.00 | 0.00 | 0.00 | 84 | 1011.2 |
| 20260906023036 | 70 | 337 | 1.0 | 6.0 | 0.00 | 0.00 | 0.00 | 83 | 1011.3 |
| 20260906021538 | 71 | 14 | 3.0 | 11.0 | 0.00 | 0.00 | 0.00 | 82 | 1011.2 |
| 20260906020033 | 71 | 27 | 8.0 | 12.0 | 0.00 | 0.00 | 0.00 | 83 | 1011.3 |
| 20260906014532 | 70 | 21 | 4.0 | 8.0 | 0.00 | 0.00 | 0.00 | 79 | 1011.2 |
| 20260906013049 | 71 | 357 | 6.0 | 9.0 | 0.00 | 0.00 | 0.00 | 79 | 1011.0 |
| 20260906011529 | 71 | 319 | 5.0 | 8.0 | 0.00 | 0.00 | 0.00 | 78 | 1010.9 |
| 20260906010029 | 72 | 330 | 5.0 | 8.0 | 0.00 | 0.00 | 0.00 | 75 | 1010.7 |
| 20260906004526 | 73 | 331 | 3.0 | 6.0 | 0.00 | 0.00 | 0.00 | 75 | 1010.5 |
| 20260906003024 | 74 | 327 | 5.0 | 8.0 | 0.00 | 0.00 | 0.00 | 73 | 1010.4 |
| 20260906001523 | 74 | 7 | 4.0 | 7.0 | 0.00 | 0.00 | 0.00 | 72 | 1010.2 |
| 20260906000022 | 75 | 321 | 4.0 | 9.0 | 0.00 | 0.00 | 0.00 | 71 | 1010.0 |
| 20260905234520 | 75 | 3 | 2.0 | 7.0 | 0.00 | 0.00 | 0.00 | 68 | 1009.9 |
| 20260905233020 | 76 | 15 | 6.0 | 10.0 | 0.00 | 0.00 | 0.00 | 66 | 1009.9 |
| 20260905231526 | 76 | 348 | 5.0 | 11.0 | 0.00 | 0.00 | 0.00 | 65 | 1009.8 |
| 20260905230023 | 78 | 12 | 3.0 | 6.0 | 0.00 | 0.00 | 0.00 | 63 | 1009.6 |
| 20260905224518 | 78 | 45 | 4.0 | 9.0 | 0.00 | 0.00 | 0.00 | 61 | 1009.6 |
| 20260905223018 | 78 | 33 | 6.0 | 10.0 | 0.00 | 0.00 | 0.00 | 62 | 1009.4 |
| 20260905221517 | 77 | 48 | 11.0 | 14.0 | 0.00 | 0.00 | 0.00 | 66 | 1009.3 |
| 20260905220016 | 78 | 36 | 7.0 | 14.0 | 0.00 | 0.00 | 0.00 | 61 | 1009.2 |
| 20260905214517 | 78 | 252 | 6.0 | 12.0 | 0.00 | 0.00 | 0.00 | 62 | 1009.2 |
| 20260905213019 | 78 | 287 | 6.0 | 15.0 | 0.00 | 0.00 | 0.00 | 62 | 1009.1 |
| 20260905211517 | 78 | 267 | 7.0 | 11.0 | 0.00 | 0.00 | 0.00 | 61 | 1009.0 |
| 20260905210013 | 79 | 13 | 7.0 | 12.0 | 0.00 | 0.00 | 0.00 | 58 | 1008.9 |
| 20260905204513 | 79 | 302 | 6.0 | 16.0 | 0.00 | 0.00 | 0.00 | 59 | 1008.8 |
| 20260905203012 | 79 | 301 | 7.0 | 14.0 | 0.00 | 0.00 | 0.00 | 60 | 1008.7 |
| 20260905201511 | 79 | 30 | 4.0 | 11.0 | 0.00 | 0.00 | 0.00 | 59 | 1008.7 |
| 20260905200009 | 79 | 348 | 7.0 | 15.0 | 0.00 | 0.00 | 0.00 | 59 | 1008.8 |
| 20260905194506 | 79 | 293 | 5.0 | 13.0 | 0.00 | 0.00 | 0.00 | 62 | 1008.7 |
| 20260905193005 | 78 | 323 | 3.0 | 12.0 | 0.00 | 0.00 | 0.00 | 60 | 1008.8 |
| 20260905191503 | 78 | 333 | 7.0 | 15.0 | 0.00 | 0.00 | 0.00 | 60 | 1008.8 |
| 20260905190100 | 78 | 300 | 3.0 | 13.0 | 0.00 | 0.00 | 0.00 | 64 | 1008.9 |
| 20260905184602 | 77 | 301 | 9.0 | 15.0 | 0.00 | 0.00 | 0.00 | 65 | 1008.9 |
| 20260905183057 | 77 | 316 | 9.0 | 17.0 | 0.00 | 0.00 | 0.00 | 64 | 1009.1 |
| 20260905181557 | 78 | 268 | 8.0 | 16.0 | 0.00 | 0.00 | 0.00 | 62 | 1009.1 |
| 20260905180056 | 77 | 297 | 6.0 | 15.0 | 0.00 | 0.00 | 0.00 | 63 | 1009.3 |
| 20260905174556 | 78 | 250 | 9.0 | 16.0 | 0.00 | 0.00 | 0.00 | 64 | 1009.2 |
| 20260905173052 | 76 | 281 | 5.0 | 17.0 | 0.00 | 0.00 | 0.00 | 65 | 1009.4 |
| 20260905171610 | 76 | 260 | 8.0 | 16.0 | 0.00 | 0.00 | 0.00 | 66 | 1009.5 |
| 20260905170101 | 76 | 294 | 6.0 | 17.0 | 0.00 | 0.00 | 0.00 | 66 | 1009.5 |
| 20260905164551 | 76 | 203 | 8.0 | 14.0 | 0.00 | 0.00 | 0.00 | 68 | 1009.7 |
| 20260905163053 | 76 | 326 | 8.0 | 15.0 | 0.00 | 0.00 | 0.00 | 67 | 1009.7 |
| 20260905161545 | 75 | 250 | 13.0 | 23.0 | 0.00 | 0.00 | 0.00 | 67 | 1009.5 |
| 20260905160042 | 75 | 305 | 12.0 | 20.0 | 0.00 | 0.00 | 0.00 | 68 | 1009.5 |
| 20260905154554 | 75 | 303 | 11.0 | 15.0 | 0.00 | 0.00 | 0.00 | 66 | 1009.6 |
| 20260905153038 | 74 | 316 | 14.0 | 20.0 | 0.00 | 0.00 | 0.00 | 68 | 1009.4 |
| 20260905151538 | 74 | 285 | 11.0 | 17.0 | 0.00 | 0.00 | 0.00 | 71 | 1009.5 |
| 20260905150042 | 73 | 321 | 11.0 | 17.0 | 0.00 | 0.00 | 0.00 | 69 | 1009.8 |
| 20260905144538 | 74 | 275 | 8.0 | 13.0 | 0.00 | 0.00 | 0.00 | 72 | 1009.7 |
| 20260905143034 | 73 | 336 | 10.0 | 16.0 | 0.00 | 0.00 | 0.00 | 72 | 1009.6 |
| 20260905141535 | 73 | 289 | 7.0 | 14.0 | 0.00 | 0.00 | 0.00 | 76 | 1009.6 |
| 20260905140032 | 72 | 274 | 9.0 | 15.0 | 0.00 | 0.00 | 0.00 | 76 | 1009.6 |
| 20260905134531 | 72 | 328 | 12.0 | 18.0 | 0.00 | 0.00 | 0.00 | 76 | 1009.7 |
| 20260905133030 | 72 | 327 | 8.0 | 12.0 | 0.00 | 0.00 | 0.00 | 76 | 1009.7 |
| 20260905131536 | 72 | 303 | 3.0 | 8.0 | 0.00 | 0.00 | 0.00 | 76 | 1009.7 |
| 20260905130029 | 71 | 323 | 5.0 | 11.0 | 0.00 | 0.00 | 0.00 | 76 | 1009.9 |
| 20260905124529 | 74 | 309 | 2.0 | 5.0 | 0.00 | 0.00 | 0.00 | 73 | 1009.9 |
| 20260905123035 | 72 | 24 | 0.0 | 0.0 | 0.00 | 0.00 | 0.00 | 77 | 1010.1 |
| 20260905121530 | 72 | 84 | 0.0 | 0.0 | 0.00 | 0.00 | 0.00 | 76 | 1010.1 |
| 20260905120026 | 71 | 292 | 0.0 | 0.0 | 0.00 | 0.00 | 0.00 | 76 | 1010.0 |
| 20260905114522 | 71 | 310 | 0.0 | 0.0 | 0.00 | 0.00 | 0.00 | 78 | 1009.9 |
| 20260905113023 | 69 | 284 | 0.0 | 0.0 | 0.00 | 0.00 | 0.00 | 81 | 1009.7 |
| 20260905111522 | 69 | 276 | 0.0 | 0.0 | 0.00 | 0.00 | 0.00 | 82 | 1009.5 |
| 20260905110019 | 67 | 264 | 0.0 | 0.0 | 0.00 | 0.00 | 0.00 | 86 | 1009.3 |
| 20260905104520 | 66 | 276 | 1.0 | 3.0 | 0.00 | 0.00 | 0.00 | 88 | 1009.1 |
| 20260905103021 | 66 | 264 | 0.0 | 3.0 | 0.00 | 0.00 | 0.00 | 87 | 1009.2 |
| 20260905101516 | 66 | 270 | 2.0 | 4.0 | 0.00 | 0.00 | 0.00 | 87 | 1009.1 |
| 20260905100019 | 67 | 264 | 2.0 | 7.0 | 0.00 | 0.00 | 0.00 | 87 | 1008.9 |
| 20260905094513 | 67 | 264 | 2.0 | 5.0 | 0.00 | 0.00 | 0.00 | 86 | 1008.9 |
| 20260905093131 | 67 | 276 | 2.0 | 7.0 | 0.00 | 0.00 | 0.00 | 85 | 1008.7 |
| 20260905091508 | 68 | 304 | 4.0 | 7.0 | 0.00 | 0.00 | 0.00 | 84 | 1008.8 |
| 20260905090008 | 68 | 271 | 6.0 | 10.0 | 0.00 | 0.00 | 0.00 | 84 | 1008.8 |
| 20260905084504 | 69 | 300 | 6.0 | 10.0 | 0.00 | 0.00 | 0.00 | 84 | 1008.6 |
| 20260905083001 | 69 | 266 | 5.0 | 10.0 | 0.00 | 0.00 | 0.00 | 83 | 1008.8 |
| 20260905081604 | 69 | 288 | 5.0 | 8.0 | 0.00 | 0.00 | 0.00 | 83 | 1008.7 |
| 20260905080118 | 69 | 244 | 6.0 | 10.0 | 0.00 | 0.00 | 0.00 | 84 | 1008.8 |